If you wish to contribute or participate in the discussions about articles you are invited to join SKYbrary as a registered user

 Actions

Almería International Airport

From SKYbrary Wiki

LEAM
Airport
ICAO: LEAM – IATA: LEI
Summary
Name Almería International Airport
Region Europe
Territory Spain ES.gif
Location , Andalucia
Serving Almeria
Elevation 21.336 m
70 ft
70 ft21.336 m
Type medium airport
Coordinates 36° 50' 38.17" N, 2° 22' 12.35" W
Runways
Designator Length Width Surface ROPS
8/26 3200 m10,498.688 ft
45 m147.638 ft
ASP no/no


METAR
Observation LEAM 230400Z 35005KT CAVOK 08/02 Q1027
Station Almeria / Aeropuerto
Date/Time 23 February 2019 04:00:00
Wind direction 350°
Wind speed 05 kts
Lowest cloud amount clouds and visibility OK
Temperature 8°C
Dew point 2°C
Humidity 65%
QNH 1027 hPa
Weather condition n/a